Time,TemperatureF,DewpointF,PressureIn,WindDirection,WindDirectionDegrees,WindSpeedMPH,WindSpeedGustMPH,Humidity,HourlyPrecipIn,Conditions,Clouds,dailyrainin,SoftwareType,DateUTC
2013-06-27 00:00:00,74.8,52.1,29.73,SSW,195,0.0,0.0,45,0.00,CLR,,0.00,WeatherDisplay:10.37,2013-06-27 08:00:00,
2013-06-27 00:10:00,74.2,52.1,29.73,NNW,328,0.0,0.0,46,0.00,CLR,,0.00,WeatherDisplay:10.37,2013-06-27 08:10:00,
2013-06-27 00:15:00,74.1,50.8,29.73,WNW,299,0.0,0.0,44,0.00,CLR,,0.00,WeatherDisplay:10.37,2013-06-27 08:15:00,
2013-06-27 00:20:00,74.3,50.4,29.73,WNW,282,0.0,0.0,43,0.00,CLR,,0.00,WeatherDisplay:10.37,2013-06-27 08:20:00,
2013-06-27 00:25:00,74.6,50.6,29.74,WSW,256,0.0,0.0,43,0.00,CLR,,0.00,WeatherDisplay:10.37,2013-06-27 08:25:00,
2013-06-27 00:30:00,74.7,51.9,29.74,SW,230,0.0,0.0,45,0.00,CLR,,0.00,WeatherDisplay:10.37,2013-06-27 08:30:00,
2013-06-27 00:35:00,74.5,51.7,29.74,WNW,303,0.0,0.0,45,0.00,CLR,,0.00,WeatherDisplay:10.37,2013-06-27 08:35:00,
2013-06-27 00:45:00,73.6,52.1,29.74,NE,38,0.0,0.0,47,0.00,CLR,,0.00,WeatherDisplay:10.37,2013-06-27 08:45:00,
2013-06-27 00:55:00,73.0,52.1,29.74,NE,44,0.0,0.0,48,0.00,CLR,,0.00,WeatherDisplay:10.37,2013-06-27 08:55:00,
2013-06-27 01:00:00,72.7,51.9,29.74,NE,48,0.0,0.0,48,0.00,CLR,,0.00,WeatherDisplay:10.37,2013-06-27 09:00:00,
2013-06-27 01:15:00,72.3,52.1,29.74,ENE,67,0.0,1.0,49,0.00,CLR,,0.00,WeatherDisplay:10.37,2013-06-27 09:15:00,
2013-06-27 01:25:00,71.4,50.7,29.75,NE,37,0.0,0.0,48,0.00,CLR,,0.00,WeatherDisplay:10.37,2013-06-27 09:25:00,
2013-06-27 01:30:00,71.2,51.6,29.75,North,8,0.0,0.0,50,0.00,CLR,,0.00,WeatherDisplay:10.37,2013-06-27 09:30:00,
2013-06-27 01:35:00,70.9,50.8,29.75,NW,315,0.0,0.0,49,0.00,CLR,,0.00,WeatherDisplay:10.37,2013-06-27 09:35:00,
2013-06-27 01:40:00,70.5,50.4,29.75,NW,319,0.0,0.0,49,0.00,CLR,,0.00,WeatherDisplay:10.37,2013-06-27 09:40:00,
2013-06-27 01:45:00,70.3,50.8,29.75,North,352,0.0,0.0,50,0.00,CLR,,0.00,WeatherDisplay:10.37,2013-06-27 09:45:00,
2013-06-27 01:50:00,70.3,50.3,29.75,NNW,336,0.0,0.0,49,0.00,CLR,,0.00,WeatherDisplay:10.37,2013-06-27 09:50:00,
2013-06-27 01:55:00,70.0,51.5,29.75,NNW,348,0.0,0.0,52,0.00,CLR,,0.00,WeatherDisplay:10.37,2013-06-27 09:55:00,
2013-06-27 02:00:00,70.0,51.0,29.75,NW,315,0.0,0.0,51,0.00,CLR,,0.00,WeatherDisplay:10.37,2013-06-27 10:00:00,
2013-06-27 02:10:00,70.0,51.0,29.75,West,262,0.0,0.0,51,0.00,CLR,,0.00,WeatherDisplay:10.37,2013-06-27 10:10:00,
2013-06-27 02:15:00,70.0,51.5,29.75,West,275,0.0,0.0,52,0.00,CLR,,0.00,WeatherDisplay:10.37,2013-06-27 10:15:00,
2013-06-27 02:20:00,69.5,50.0,29.76,West,265,0.0,0.0,50,0.00,CLR,,0.00,WeatherDisplay:10.37,2013-06-27 10:20:00,
2013-06-27 02:25:00,68.9,50.0,29.76,SE,133,0.0,0.0,51,0.00,CLR,,0.00,WeatherDisplay:10.37,2013-06-27 10:25:00,
2013-06-27 02:30:00,68.4,50.6,29.76,East,83,0.0,0.0,53,0.00,CLR,,0.00,WeatherDisplay:10.37,2013-06-27 10:30:00,
2013-06-27 02:40:00,68.0,50.7,29.77,NNW,341,0.0,0.0,54,0.00,CLR,,0.00,WeatherDisplay:10.37,2013-06-27 10:40:00,
2013-06-27 02:45:00,68.2,49.9,29.77,WNW,301,0.0,0.0,52,0.00,CLR,,0.00,WeatherDisplay:10.37,2013-06-27 10:45:00,
2013-06-27 02:55:00,68.5,49.7,29.77,West,276,0.0,0.0,51,0.00,CLR,,0.00,WeatherDisplay:10.37,2013-06-27 10:55:00,
2013-06-27 03:00:00,68.8,49.9,29.77,WSW,248,0.0,0.0,51,0.00,CLR,,0.00,WeatherDisplay:10.37,2013-06-27 11:00:00,
2013-06-27 03:10:00,68.7,49.9,29.77,WSW,257,0.0,0.0,51,0.00,CLR,,0.00,WeatherDisplay:10.37,2013-06-27 11:10:00,
2013-06-27 03:15:00,68.7,49.9,29.77,West,260,0.0,0.0,51,0.00,CLR,,0.00,WeatherDisplay:10.37,2013-06-27 11:15:00,
2013-06-27 03:25:00,68.5,50.2,29.77,WSW,255,0.0,0.0,52,0.00,CLR,,0.00,WeatherDisplay:10.37,2013-06-27 11:25:00,
2013-06-27 03:30:00,68.3,50.5,29.77,WSW,257,0.0,0.0,53,0.00,CLR,,0.00,WeatherDisplay:10.37,2013-06-27 11:30:00,
2013-06-27 03:40:00,67.7,50.0,29.77,SW,235,0.0,0.0,53,0.00,CLR,,0.00,WeatherDisplay:10.37,2013-06-27 11:40:00,
2013-06-27 03:45:00,67.6,50.9,29.77,WSW,250,0.0,0.0,55,0.00,CLR,,0.00,WeatherDisplay:10.37,2013-06-27 11:45:00,
2013-06-27 03:55:00,66.9,50.2,29.77,West,272,0.0,0.0,55,0.00,CLR,,0.00,WeatherDisplay:10.37,2013-06-27 11:55:00,
2013-06-27 04:00:00,66.7,50.5,29.78,West,262,0.0,0.0,56,0.00,CLR,,0.00,WeatherDisplay:10.37,2013-06-27 12:00:00,
2013-06-27 04:10:00,66.5,50.8,29.78,SW,215,0.0,0.0,57,0.00,CLR,,0.00,WeatherDisplay:10.37,2013-06-27 12:10:00,
2013-06-27 04:15:00,66.4,51.2,29.79,SW,226,0.0,0.0,58,0.00,CLR,,0.00,WeatherDisplay:10.37,2013-06-27 12:15:00,
2013-06-27 04:20:00,66.4,50.7,29.79,WSW,250,0.0,0.0,57,0.00,CLR,,0.00,WeatherDisplay:10.37,2013-06-27 12:20:00,
2013-06-27 04:25:00,66.6,51.3,29.79,WSW,251,0.0,0.0,58,0.00,CLR,,0.00,WeatherDisplay:10.37,2013-06-27 12:25:00,
2013-06-27 04:30:00,66.7,51.5,29.80,WSW,249,0.0,0.0,58,0.00,CLR,,0.00,WeatherDisplay:10.37,2013-06-27 12:30:00,
2013-06-27 04:40:00,66.4,51.6,29.81,West,261,0.0,0.0,59,0.00,CLR,,0.00,WeatherDisplay:10.37,2013-06-27 12:40:00,
2013-06-27 04:45:00,66.3,52.0,29.81,West,267,1.0,0.0,60,0.00,CLR,,0.00,WeatherDisplay:10.37,2013-06-27 12:45:00,
2013-06-27 04:50:00,66.6,52.3,29.81,WSW,241,2.0,0.0,60,0.00,CLR,,0.00,WeatherDisplay:10.37,2013-06-27 12:50:00,
2013-06-27 04:55:00,66.9,52.6,29.81,WSW,237,0.0,0.0,60,0.00,CLR,,0.00,WeatherDisplay:10.37,2013-06-27 12:55:00,
2013-06-27 05:00:00,66.9,52.6,29.81,WSW,255,1.0,0.0,60,0.00,CLR,,0.00,WeatherDisplay:10.37,2013-06-27 13:00:00,
2013-06-27 05:10:00,67.8,53.0,29.81,West,259,1.0,0.0,59,0.00,CLR,,0.00,WeatherDisplay:10.37,2013-06-27 13:10:00,
2013-06-27 05:15:00,68.4,53.5,29.81,West,259,1.0,0.0,59,0.00,CLR,,0.00,WeatherDisplay:10.37,2013-06-27 13:15:00,
2013-06-27 05:20:00,68.8,53.9,29.81,West,266,0.0,0.0,59,0.00,CLR,,0.00,WeatherDisplay:10.37,2013-06-27 13:20:00,
2013-06-27 05:25:00,69.1,54.1,29.81,West,264,0.0,0.0,59,0.00,CLR,,0.00,WeatherDisplay:10.37,2013-06-27 13:25:00,
2013-06-27 05:30:00,68.8,55.2,29.81,WSW,256,0.0,0.0,62,0.00,CLR,,0.00,WeatherDisplay:10.37,2013-06-27 13:30:00,
2013-06-27 05:40:00,65.5,56.6,29.82,WSW,257,3.0,0.0,73,0.01,RA,,0.01,WeatherDisplay:10.37,2013-06-27 13:40:00,
2013-06-27 05:45:00,64.2,55.4,29.82,WNW,286,2.0,0.0,73,0.00,,,0.01,WeatherDisplay:10.37,2013-06-27 13:45:00,
2013-06-27 05:55:00,64.1,54.5,29.80,WNW,302,2.0,0.0,71,0.00,CLR,,0.01,WeatherDisplay:10.37,2013-06-27 13:55:00,
2013-06-27 06:00:00,64.6,55.3,29.80,NW,324,2.0,0.0,72,0.00,CLR,,0.01,WeatherDisplay:10.37,2013-06-27 14:00:00,
2013-06-27 06:05:00,65.4,57.3,29.80,NNE,26,2.0,0.0,75,0.00,CLR,,0.01,WeatherDisplay:10.37,2013-06-27 14:05:00,
2013-06-27 06:10:00,65.5,58.8,29.82,SSW,199,5.0,0.0,79,0.00,CLR,,0.01,WeatherDisplay:10.37,2013-06-27 14:10:00,
2013-06-27 06:15:00,64.9,58.2,29.83,South,185,2.0,0.0,79,0.00,CLR,,0.01,WeatherDisplay:10.37,2013-06-27 14:15:00,
2013-06-27 06:25:00,63.7,56.7,29.84,WSW,243,0.0,0.0,78,0.00,CLR,,0.01,WeatherDisplay:10.37,2013-06-27 14:25:00,
2013-06-27 06:30:00,63.3,57.0,29.84,NE,47,0.0,0.0,80,0.00,CLR,,0.01,WeatherDisplay:10.37,2013-06-27 14:30:00,
2013-06-27 06:40:00,63.0,56.3,29.85,WSW,252,0.0,0.0,79,0.00,CLR,,0.01,WeatherDisplay:10.37,2013-06-27 14:40:00,
2013-06-27 06:45:00,62.8,56.2,29.85,West,278,0.0,0.0,79,0.00,CLR,,0.01,WeatherDisplay:10.37,2013-06-27 14:45:00,
2013-06-27 06:50:00,62.8,56.5,29.85,WSW,252,0.0,0.0,80,0.00,CLR,,0.01,WeatherDisplay:10.37,2013-06-27 14:50:00,
2013-06-27 06:55:00,62.6,56.7,29.85,West,270,0.0,0.0,81,0.00,CLR,,0.01,WeatherDisplay:10.37,2013-06-27 14:55:00,
2013-06-27 07:00:00,62.4,56.2,29.85,West,281,0.0,0.0,80,0.00,CLR,,0.01,WeatherDisplay:10.37,2013-06-27 15:00:00,
2013-06-27 07:05:00,62.4,56.5,29.86,SW,232,0.0,0.0,81,0.00,CLR,,0.01,WeatherDisplay:10.37,2013-06-27 15:05:00,
2013-06-27 07:10:00,62.6,56.3,29.85,WSW,237,0.0,0.0,80,0.00,CLR,,0.01,WeatherDisplay:10.37,2013-06-27 15:10:00,
2013-06-27 07:15:00,63.1,56.9,29.85,West,272,1.0,0.0,80,0.00,CLR,,0.01,WeatherDisplay:10.37,2013-06-27 15:15:00,
2013-06-27 07:20:00,63.6,57.3,29.85,West,265,1.0,0.0,80,0.00,CLR,,0.01,WeatherDisplay:10.37,2013-06-27 15:20:00,
2013-06-27 07:25:00,64.2,57.6,29.86,West,263,1.0,0.0,79,0.00,CLR,,0.01,WeatherDisplay:10.37,2013-06-27 15:25:00,
2013-06-27 07:30:00,64.6,57.9,29.85,West,265,1.0,0.0,79,0.00,CLR,,0.01,WeatherDisplay:10.37,2013-06-27 15:30:00,
2013-06-27 07:35:00,64.9,57.9,29.86,WSW,242,0.0,0.0,78,0.00,CLR,,0.01,WeatherDisplay:10.37,2013-06-27 15:35:00,
2013-06-27 07:40:00,64.9,57.9,29.86,WSW,248,0.0,0.0,78,0.00,CLR,,0.01,WeatherDisplay:10.37,2013-06-27 15:40:00,
2013-06-27 07:45:00,65.1,58.1,29.86,WSW,243,0.0,0.0,78,0.00,CLR,,0.01,WeatherDisplay:10.37,2013-06-27 15:45:00,
2013-06-27 07:50:00,65.1,58.4,29.86,SW,228,0.0,0.0,79,0.00,CLR,,0.01,WeatherDisplay:10.37,2013-06-27 15:50:00,
2013-06-27 08:00:00,65.3,59.3,29.86,WSW,244,0.0,0.0,81,0.00,CLR,,0.01,WeatherDisplay:10.37,2013-06-27 16:00:00,
2013-06-27 08:10:00,65.3,59.3,29.86,WSW,249,1.0,0.0,81,0.00,CLR,,0.01,WeatherDisplay:10.37,2013-06-27 16:10:00,
2013-06-27 08:15:00,65.3,59.0,29.86,WSW,251,0.0,0.0,80,0.00,CLR,,0.01,WeatherDisplay:10.37,2013-06-27 16:15:00,
2013-06-27 08:25:00,65.1,58.4,29.87,WSW,246,2.0,0.0,79,0.00,CLR,,0.01,WeatherDisplay:10.37,2013-06-27 16:25:00,
2013-06-27 08:30:00,64.9,58.3,29.87,WSW,248,0.0,0.0,79,0.00,CLR,,0.01,WeatherDisplay:10.37,2013-06-27 16:30:00,
2013-06-27 08:35:00,64.9,58.3,29.87,WSW,246,1.0,0.0,79,0.00,CLR,,0.01,WeatherDisplay:10.37,2013-06-27 16:35:00,
2013-06-27 08:40:00,64.8,58.1,29.87,WSW,247,0.0,0.0,79,0.00,CLR,,0.01,WeatherDisplay:10.37,2013-06-27 16:40:00,
2013-06-27 08:45:00,64.8,57.7,29.87,West,264,1.0,0.0,78,0.00,CLR,,0.01,WeatherDisplay:10.37,2013-06-27 16:45:00,
2013-06-27 08:55:00,64.6,57.6,29.88,WSW,258,2.0,0.0,78,0.00,CLR,,0.01,WeatherDisplay:10.37,2013-06-27 16:55:00,
2013-06-27 09:00:00,64.6,57.6,29.88,WSW,250,0.0,0.0,78,0.00,CLR,,0.01,WeatherDisplay:10.37,2013-06-27 17:00:00,
2013-06-27 09:10:00,64.6,57.6,29.88,SW,236,0.0,0.0,78,0.00,CLR,,0.01,WeatherDisplay:10.37,2013-06-27 17:10:00,
2013-06-27 09:15:00,64.6,57.6,29.88,WSW,255,1.0,0.0,78,0.00,CLR,,0.01,WeatherDisplay:10.37,2013-06-27 17:15:00,
2013-06-27 09:20:00,64.8,57.7,29.88,West,271,1.0,0.0,78,0.00,CLR,,0.01,WeatherDisplay:10.37,2013-06-27 17:20:00,
2013-06-27 09:25:00,64.9,58.3,29.88,West,259,0.0,0.0,79,0.00,CLR,,0.01,WeatherDisplay:10.37,2013-06-27 17:25:00,
2013-06-27 09:30:00,65.2,58.2,29.88,WSW,255,0.0,0.0,78,0.00,CLR,,0.01,WeatherDisplay:10.37,2013-06-27 17:30:00,
2013-06-27 09:40:00,65.8,58.8,29.89,West,259,2.0,0.0,78,0.00,CLR,,0.01,WeatherDisplay:10.37,2013-06-27 17:40:00,
2013-06-27 09:45:00,66.0,58.6,29.89,WSW,247,2.0,0.0,77,0.00,CLR,,0.01,WeatherDisplay:10.37,2013-06-27 17:45:00,
2013-06-27 09:50:00,66.4,58.9,29.89,WSW,240,0.0,0.0,77,0.00,CLR,,0.01,WeatherDisplay:10.37,2013-06-27 17:50:00,
2013-06-27 09:55:00,66.6,58.8,29.89,SW,235,0.0,0.0,76,0.00,CLR,,0.01,WeatherDisplay:10.37,2013-06-27 17:55:00,
2013-06-27 10:00:00,66.7,59.7,29.89,SW,236,2.0,0.0,78,0.00,CLR,,0.01,WeatherDisplay:10.37,2013-06-27 18:00:00,
2013-06-27 10:05:00,66.9,59.8,29.89,WSW,247,0.0,0.0,78,0.00,CLR,,0.01,WeatherDisplay:10.37,2013-06-27 18:05:00,
2013-06-27 10:10:00,66.9,59.5,29.89,SW,233,0.0,0.0,77,0.00,CLR,,0.01,WeatherDisplay:10.37,2013-06-27 18:10:00,
2013-06-27 10:15:00,67.3,59.8,29.89,SW,231,1.0,0.0,77,0.00,CLR,,0.01,WeatherDisplay:10.37,2013-06-27 18:15:00,
2013-06-27 10:25:00,67.5,60.0,29.90,SW,231,2.0,0.0,77,0.00,CLR,,0.01,WeatherDisplay:10.37,2013-06-27 18:25:00,
2013-06-27 10:30:00,67.6,59.8,29.90,WSW,249,1.0,0.0,76,0.00,CLR,,0.01,WeatherDisplay:10.37,2013-06-27 18:30:00,
2013-06-27 10:40:00,67.7,59.8,29.90,SSW,210,2.0,0.0,76,0.00,CLR,,0.01,WeatherDisplay:10.37,2013-06-27 18:40:00,
2013-06-27 10:45:00,68.2,60.3,29.90,SW,235,0.0,0.0,76,0.00,CLR,,0.01,WeatherDisplay:10.37,2013-06-27 18:45:00,
2013-06-27 10:50:00,68.7,60.1,29.90,West,265,1.0,0.0,74,0.00,CLR,,0.01,WeatherDisplay:10.37,2013-06-27 18:50:00,
2013-06-27 10:55:00,69.3,60.7,29.90,WSW,254,2.0,0.0,74,0.00,CLR,,0.01,WeatherDisplay:10.37,2013-06-27 18:55:00,
2013-06-27 11:05:00,70.0,61.7,29.90,WSW,258,2.0,0.0,75,0.00,CLR,,0.01,WeatherDisplay:10.37,2013-06-27 19:05:00,
2013-06-27 11:10:00,72.1,62.5,29.90,WSW,255,2.0,0.0,72,0.00,CLR,,0.01,WeatherDisplay:10.37,2013-06-27 19:10:00,
2013-06-27 11:15:00,75.1,65.4,29.90,West,259,2.0,0.0,72,0.00,CLR,,0.01,WeatherDisplay:10.37,2013-06-27 19:15:00,
2013-06-27 11:20:00,76.8,66.2,29.90,West,261,2.0,0.0,70,0.00,CLR,,0.01,WeatherDisplay:10.37,2013-06-27 19:20:00,
2013-06-27 11:25:00,77.3,66.3,29.90,WSW,256,3.0,0.0,69,0.00,CLR,,0.01,WeatherDisplay:10.37,2013-06-27 19:25:00,
2013-06-27 11:30:00,77.5,66.5,29.90,WSW,255,3.0,0.0,69,0.00,CLR,,0.01,WeatherDisplay:10.37,2013-06-27 19:30:00,
2013-06-27 11:40:00,79.9,67.6,29.91,WSW,250,3.0,0.0,66,0.00,CLR,,0.01,WeatherDisplay:10.37,2013-06-27 19:40:00,
2013-06-27 11:45:00,80.2,68.3,29.91,WSW,256,2.0,0.0,67,0.00,CLR,,0.01,WeatherDisplay:10.37,2013-06-27 19:45:00,
2013-06-27 11:55:00,79.9,67.1,29.91,WSW,249,3.0,0.0,65,0.00,CLR,,0.01,WeatherDisplay:10.37,2013-06-27 19:55:00,
2013-06-27 12:00:00,79.3,66.5,29.90,WSW,251,2.0,0.0,65,0.00,CLR,,0.01,WeatherDisplay:10.37,2013-06-27 20:00:00,
2013-06-27 12:05:00,79.5,67.2,29.91,WSW,247,3.0,0.0,66,0.00,CLR,,0.01,WeatherDisplay:10.37,2013-06-27 20:05:00,
2013-06-27 12:10:00,79.5,66.7,29.91,WSW,237,2.0,0.0,65,0.00,CLR,,0.01,WeatherDisplay:10.37,2013-06-27 20:10:00,
2013-06-27 12:15:00,79.8,67.0,29.91,WSW,248,3.0,0.0,65,0.00,CLR,,0.01,WeatherDisplay:10.37,2013-06-27 20:15:00,
2013-06-27 12:25:00,80.2,67.0,29.91,WSW,243,0.0,0.0,64,0.00,CLR,,0.01,WeatherDisplay:10.37,2013-06-27 20:25:00,
2013-06-27 12:30:00,80.8,67.5,29.91,WSW,245,0.0,0.0,64,0.00,CLR,,0.01,WeatherDisplay:10.37,2013-06-27 20:30:00,
2013-06-27 12:40:00,82.2,67.9,29.92,West,261,0.0,0.0,62,0.00,CLR,,0.01,WeatherDisplay:10.37,2013-06-27 20:40:00,
2013-06-27 12:45:00,82.2,67.9,29.91,WSW,256,1.0,0.0,62,0.00,CLR,,0.01,WeatherDisplay:10.37,2013-06-27 20:45:00,
2013-06-27 12:55:00,82.6,68.2,29.92,SSW,204,1.0,0.0,62,0.00,CLR,,0.01,WeatherDisplay:10.37,2013-06-27 20:55:00,
2013-06-27 13:00:00,82.3,68.0,29.92,SW,224,1.0,0.0,62,0.00,CLR,,0.01,WeatherDisplay:10.37,2013-06-27 21:00:00,
2013-06-27 13:15:00,82.2,67.4,29.92,WSW,253,0.0,0.0,61,0.00,CLR,,0.01,WeatherDisplay:10.37,2013-06-27 21:15:00,
2013-06-27 13:25:00,82.6,66.8,29.92,WSW,240,0.0,0.0,59,0.00,CLR,,0.01,WeatherDisplay:10.37,2013-06-27 21:25:00,
2013-06-27 13:35:00,83.3,68.9,29.92,WSW,245,2.0,0.0,62,0.00,CLR,,0.01,WeatherDisplay:10.37,2013-06-27 21:35:00,
2013-06-27 13:40:00,83.1,65.8,29.92,WSW,252,1.0,0.0,56,0.00,CLR,,0.01,WeatherDisplay:10.37,2013-06-27 21:40:00,
2013-06-27 13:45:00,83.3,66.5,29.92,West,259,1.0,0.0,57,0.00,CLR,,0.01,WeatherDisplay:10.37,2013-06-27 21:45:00,
2013-06-27 13:50:00,83.2,65.9,29.92,WSW,251,0.0,0.0,56,0.00,CLR,,0.01,WeatherDisplay:10.37,2013-06-27 21:50:00,
2013-06-27 13:55:00,83.0,65.7,29.92,West,259,0.0,0.0,56,0.00,CLR,,0.01,WeatherDisplay:10.37,2013-06-27 21:55:00,
2013-06-27 14:00:00,82.2,65.4,29.92,WSW,243,1.0,0.0,57,0.00,CLR,,0.01,WeatherDisplay:10.37,2013-06-27 22:00:00,
2013-06-27 14:10:00,80.3,64.2,29.92,WSW,240,0.0,0.0,58,0.00,CLR,,0.01,WeatherDisplay:10.37,2013-06-27 22:10:00,
2013-06-27 14:20:00,81.9,64.6,29.92,WSW,238,0.0,0.0,56,0.00,CLR,,0.01,WeatherDisplay:10.37,2013-06-27 22:20:00,
2013-06-27 14:25:00,82.1,64.4,29.92,WSW,241,0.0,0.0,55,0.00,CLR,,0.01,WeatherDisplay:10.37,2013-06-27 22:25:00,
2013-06-27 14:30:00,81.9,64.1,29.93,WSW,238,1.0,0.0,55,0.00,CLR,,0.01,WeatherDisplay:10.37,2013-06-27 22:30:00,
2013-06-27 14:40:00,83.2,64.8,29.92,WSW,237,2.0,0.0,54,0.00,CLR,,0.01,WeatherDisplay:10.37,2013-06-27 22:40:00,
2013-06-27 14:50:00,83.8,64.3,29.92,WSW,246,1.0,0.0,52,0.00,CLR,,0.01,WeatherDisplay:10.37,2013-06-27 22:50:00,
2013-06-27 14:55:00,84.0,64.5,29.92,WSW,252,2.0,0.0,52,0.00,CLR,,0.01,WeatherDisplay:10.37,2013-06-27 22:55:00,
2013-06-27 15:05:00,84.0,64.5,29.92,WSW,240,0.0,0.0,52,0.00,CLR,,0.01,WeatherDisplay:10.37,2013-06-27 23:05:00,
2013-06-27 15:10:00,84.0,63.9,29.92,WSW,242,1.0,0.0,51,0.00,CLR,,0.01,WeatherDisplay:10.37,2013-06-27 23:10:00,
2013-06-27 15:15:00,84.2,64.6,29.92,WSW,243,0.0,0.0,52,0.00,CLR,,0.01,WeatherDisplay:10.37,2013-06-27 23:15:00,
2013-06-27 15:20:00,84.7,64.0,29.92,WSW,245,0.0,0.0,50,0.00,CLR,,0.01,WeatherDisplay:10.37,2013-06-27 23:20:00,
2013-06-27 15:25:00,84.9,64.8,29.92,WSW,240,0.0,0.0,51,0.00,CLR,,0.01,WeatherDisplay:10.37,2013-06-27 23:25:00,
2013-06-27 15:30:00,85.3,64.5,29.93,SW,224,1.0,0.0,50,0.00,CLR,,0.01,WeatherDisplay:10.37,2013-06-27 23:30:00,
2013-06-27 15:35:00,85.8,65.5,29.92,WSW,244,1.0,0.0,51,0.00,CLR,,0.01,WeatherDisplay:10.37,2013-06-27 23:35:00,
2013-06-27 15:40:00,85.9,65.1,29.92,WSW,247,0.0,0.0,50,0.00,CLR,,0.01,WeatherDisplay:10.37,2013-06-27 23:40:00,
2013-06-27 15:45:00,85.7,64.4,29.92,SW,233,0.0,0.0,49,0.00,CLR,,0.01,WeatherDisplay:10.37,2013-06-27 23:45:00,
2013-06-27 15:55:00,85.8,63.9,29.92,SW,231,0.0,0.0,48,0.00,CLR,,0.01,WeatherDisplay:10.37,2013-06-27 23:55:00,
2013-06-27 16:00:00,86.3,65.5,29.92,SW,235,0.0,0.0,50,0.00,CLR,,0.01,WeatherDisplay:10.37,2013-06-28 00:00:00,
2013-06-27 16:05:00,86.5,65.1,29.92,WSW,252,3.0,0.0,49,0.00,CLR,,0.01,WeatherDisplay:10.37,2013-06-28 00:05:00,
2013-06-27 16:10:00,87.3,65.2,29.92,WSW,250,5.0,0.0,48,0.00,CLR,,0.01,WeatherDisplay:10.37,2013-06-28 00:10:00,
2013-06-27 16:15:00,86.6,64.0,29.92,WSW,244,7.0,0.0,47,0.00,CLR,,0.01,WeatherDisplay:10.37,2013-06-28 00:15:00,
2013-06-27 16:20:00,85.8,64.5,29.92,WSW,242,0.0,0.0,49,0.00,CLR,,0.01,WeatherDisplay:10.37,2013-06-28 00:20:00,
2013-06-27 16:25:00,85.9,64.0,29.92,WSW,242,0.0,0.0,48,0.00,CLR,,0.01,WeatherDisplay:10.37,2013-06-28 00:25:00,
2013-06-27 16:35:00,85.5,63.0,29.92,SW,232,3.0,0.0,47,0.00,CLR,,0.01,WeatherDisplay:10.37,2013-06-28 00:35:00,
2013-06-27 16:40:00,84.8,63.0,29.92,SW,233,2.0,0.0,48,0.00,CLR,,0.01,WeatherDisplay:10.37,2013-06-28 00:40:00,
2013-06-27 16:45:00,84.0,62.8,29.92,WSW,240,0.0,0.0,49,0.00,CLR,,0.01,WeatherDisplay:10.37,2013-06-28 00:45:00,
2013-06-27 16:55:00,84.3,63.1,29.93,WSW,247,0.0,0.0,49,0.00,CLR,,0.01,WeatherDisplay:10.37,2013-06-28 00:55:00,
2013-06-27 17:00:00,83.9,63.8,29.93,WSW,247,0.0,0.0,51,0.00,CLR,,0.01,WeatherDisplay:10.37,2013-06-28 01:00:00,
2013-06-27 17:10:00,82.2,62.3,29.93,West,259,0.0,0.0,51,0.00,CLR,,0.01,WeatherDisplay:10.37,2013-06-28 01:10:00,
2013-06-27 17:20:00,84.2,64.1,29.93,WSW,250,0.0,0.0,51,0.00,CLR,,0.01,WeatherDisplay:10.37,2013-06-28 01:20:00,
2013-06-27 17:25:00,84.9,64.8,29.93,WSW,237,0.0,0.0,51,0.00,CLR,,0.01,WeatherDisplay:10.37,2013-06-28 01:25:00,
2013-06-27 17:40:00,83.5,64.0,29.94,WSW,240,0.0,0.0,52,0.00,CLR,,0.01,WeatherDisplay:10.37,2013-06-28 01:40:00,
2013-06-27 17:50:00,80.7,62.0,29.94,WSW,258,0.0,0.0,53,0.00,CLR,,0.01,WeatherDisplay:10.37,2013-06-28 01:50:00,
2013-06-27 17:55:00,79.8,61.7,29.94,WSW,251,0.0,0.0,54,0.00,CLR,,0.01,WeatherDisplay:10.37,2013-06-28 01:55:00,
2013-06-27 18:00:00,78.9,60.8,29.94,WSW,240,0.0,0.0,54,0.00,CLR,,0.01,WeatherDisplay:10.37,2013-06-28 02:00:00,
2013-06-27 18:20:00,75.9,59.1,29.94,WSW,257,0.0,0.0,56,0.00,CLR,,0.01,WeatherDisplay:10.37,2013-06-28 02:20:00,
2013-06-27 18:25:00,76.1,59.3,29.94,WSW,257,0.0,0.0,56,0.00,CLR,,0.01,WeatherDisplay:10.37,2013-06-28 02:25:00,
2013-06-27 18:30:00,77.5,60.6,29.94,WSW,255,0.0,0.0,56,0.00,CLR,,0.01,WeatherDisplay:10.37,2013-06-28 02:30:00,
2013-06-27 18:40:00,77.5,60.1,29.94,SW,233,0.0,0.0,55,0.00,CLR,,0.01,WeatherDisplay:10.37,2013-06-28 02:40:00,
2013-06-27 18:45:00,77.2,59.8,29.94,WSW,250,0.0,0.0,55,0.00,CLR,,0.01,WeatherDisplay:10.37,2013-06-28 02:45:00,
2013-06-27 18:55:00,77.0,60.1,29.94,WSW,257,0.0,0.0,56,0.00,CLR,,0.01,WeatherDisplay:10.37,2013-06-28 02:55:00,
2013-06-27 19:10:00,77.9,61.4,29.94,WSW,239,0.0,0.0,57,0.00,CLR,,0.01,WeatherDisplay:10.37,2013-06-28 03:10:00,
2013-06-27 19:15:00,77.7,60.8,29.94,WSW,247,0.0,0.0,56,0.00,CLR,,0.01,WeatherDisplay:10.37,2013-06-28 03:15:00,
2013-06-27 19:20:00,77.2,60.3,29.94,WSW,241,1.0,0.0,56,0.00,CLR,,0.01,WeatherDisplay:10.37,2013-06-28 03:20:00,
2013-06-27 19:25:00,76.6,59.8,29.94,SW,234,0.0,0.0,56,0.00,CLR,,0.01,WeatherDisplay:10.37,2013-06-28 03:25:00,
2013-06-27 19:30:00,76.1,59.2,29.94,WSW,255,0.0,0.0,56,0.00,CLR,,0.01,WeatherDisplay:10.37,2013-06-28 03:30:00,
2013-06-27 19:40:00,75.3,59.0,29.94,WSW,252,0.0,0.0,57,0.00,CLR,,0.01,WeatherDisplay:10.37,2013-06-28 03:40:00,
2013-06-27 19:45:00,75.1,58.8,29.94,West,263,0.0,0.0,57,0.00,CLR,,0.01,WeatherDisplay:10.37,2013-06-28 03:45:00,
2013-06-27 19:55:00,75.3,59.0,29.94,West,262,0.0,0.0,57,0.00,CLR,,0.01,WeatherDisplay:10.37,2013-06-28 03:55:00,
2013-06-27 20:00:00,75.2,58.9,29.94,SW,235,0.0,0.0,57,0.00,CLR,,0.01,WeatherDisplay:10.37,2013-06-28 04:00:00,
2013-06-27 20:05:00,75.4,59.6,29.94,SW,227,0.0,0.0,58,0.00,CLR,,0.01,WeatherDisplay:10.37,2013-06-28 04:05:00,
2013-06-27 20:10:00,75.4,59.6,29.94,WSW,243,0.0,0.0,58,0.00,CLR,,0.01,WeatherDisplay:10.37,2013-06-28 04:10:00,
2013-06-27 20:15:00,75.9,59.6,29.94,WSW,247,0.0,0.0,57,0.00,CLR,,0.01,WeatherDisplay:10.37,2013-06-28 04:15:00,
2013-06-27 20:25:00,76.8,59.9,29.94,WSW,254,0.0,0.0,56,0.00,CLR,,0.01,WeatherDisplay:10.37,2013-06-28 04:25:00,
2013-06-27 20:30:00,76.8,60.4,29.94,WSW,254,0.0,0.0,57,0.00,CLR,,0.01,WeatherDisplay:10.37,2013-06-28 04:30:00,
2013-06-27 20:40:00,75.9,60.1,29.94,West,277,0.0,0.0,58,0.00,CLR,,0.01,WeatherDisplay:10.37,2013-06-28 04:40:00,
2013-06-27 20:45:00,75.6,60.2,29.95,West,274,0.0,0.0,59,0.00,CLR,,0.01,WeatherDisplay:10.37,2013-06-28 04:45:00,
2013-06-27 20:50:00,75.2,59.8,29.95,WSW,252,0.0,0.0,59,0.00,CLR,,0.01,WeatherDisplay:10.37,2013-06-28 04:50:00,
2013-06-27 20:55:00,74.8,59.1,29.95,WSW,239,0.0,0.0,58,0.00,CLR,,0.01,WeatherDisplay:10.37,2013-06-28 04:55:00,
2013-06-27 21:00:00,74.5,58.7,29.95,SW,234,0.0,0.0,58,0.00,CLR,,0.01,WeatherDisplay:10.37,2013-06-28 05:00:00,
2013-06-27 21:10:00,74.3,58.6,29.96,WSW,247,0.0,0.0,58,0.00,CLR,,0.01,WeatherDisplay:10.37,2013-06-28 05:10:00,
2013-06-27 21:15:00,74.1,58.4,29.96,WSW,248,0.0,0.0,58,0.00,CLR,,0.01,WeatherDisplay:10.37,2013-06-28 05:15:00,
2013-06-27 21:25:00,73.9,57.2,29.96,WSW,249,2.0,0.0,56,0.00,CLR,,0.01,WeatherDisplay:10.37,2013-06-28 05:25:00,
2013-06-27 21:30:00,73.5,56.3,29.96,West,259,1.0,0.0,55,0.00,CLR,,0.01,WeatherDisplay:10.37,2013-06-28 05:30:00,
2013-06-27 21:35:00,73.2,56.1,29.96,West,259,0.0,0.0,55,0.00,CLR,,0.01,WeatherDisplay:10.37,2013-06-28 05:35:00,
2013-06-27 21:40:00,72.9,55.3,29.96,West,265,0.0,0.0,54,0.00,CLR,,0.01,WeatherDisplay:10.37,2013-06-28 05:40:00,
2013-06-27 21:45:00,72.6,55.0,29.96,West,262,0.0,0.0,54,0.00,CLR,,0.01,WeatherDisplay:10.37,2013-06-28 05:45:00,
2013-06-27 21:50:00,72.3,55.2,29.97,West,266,0.0,0.0,55,0.00,CLR,,0.01,WeatherDisplay:10.37,2013-06-28 05:50:00,
2013-06-27 21:55:00,72.1,55.1,29.97,West,265,0.0,0.0,55,0.00,CLR,,0.01,WeatherDisplay:10.37,2013-06-28 05:55:00,
2013-06-27 22:00:00,72.0,55.4,29.97,West,259,0.0,0.0,56,0.00,CLR,,0.01,WeatherDisplay:10.37,2013-06-28 06:00:00,
2013-06-27 22:10:00,71.8,55.7,29.97,WSW,254,0.0,0.0,57,0.00,CLR,,0.01,WeatherDisplay:10.37,2013-06-28 06:10:00,
2013-06-27 22:15:00,71.7,55.7,29.97,WSW,252,0.0,0.0,57,0.00,CLR,,0.01,WeatherDisplay:10.37,2013-06-28 06:15:00,
2013-06-27 22:20:00,71.4,55.4,29.97,WSW,251,0.0,0.0,57,0.00,CLR,,0.01,WeatherDisplay:10.37,2013-06-28 06:20:00,
2013-06-27 22:25:00,71.4,55.4,29.97,WSW,258,0.0,0.0,57,0.00,CLR,,0.01,WeatherDisplay:10.37,2013-06-28 06:25:00,
2013-06-27 22:30:00,71.2,54.7,29.97,West,261,0.0,0.0,56,0.00,CLR,,0.01,WeatherDisplay:10.37,2013-06-28 06:30:00,
2013-06-27 22:35:00,71.2,55.2,29.98,West,259,0.0,0.0,57,0.00,CLR,,0.01,WeatherDisplay:10.37,2013-06-28 06:35:00,
2013-06-27 22:40:00,71.1,55.1,29.98,WSW,257,0.0,0.0,57,0.00,CLR,,0.01,WeatherDisplay:10.37,2013-06-28 06:40:00,
2013-06-27 22:45:00,70.8,55.3,29.98,WSW,256,0.0,0.0,58,0.00,CLR,,0.01,WeatherDisplay:10.37,2013-06-28 06:45:00,
2013-06-27 22:55:00,70.5,55.5,29.98,WSW,253,0.0,0.0,59,0.00,CLR,,0.01,WeatherDisplay:10.37,2013-06-28 06:55:00,
2013-06-27 23:00:00,70.3,55.8,29.98,WSW,251,0.0,0.0,60,0.00,CLR,,0.01,WeatherDisplay:10.37,2013-06-28 07:00:00,
2013-06-27 23:10:00,70.0,55.1,29.99,WSW,258,0.0,0.0,59,0.00,CLR,,0.01,WeatherDisplay:10.37,2013-06-28 07:10:00,
2013-06-27 23:15:00,69.8,54.8,29.99,West,269,0.0,0.0,59,0.00,CLR,,0.01,WeatherDisplay:10.37,2013-06-28 07:15:00,
2013-06-27 23:20:00,69.6,54.7,29.99,West,260,0.0,0.0,59,0.00,CLR,,0.01,WeatherDisplay:10.37,2013-06-28 07:20:00,
2013-06-27 23:25:00,69.5,54.0,29.98,West,259,1.0,0.0,58,0.00,CLR,,0.01,WeatherDisplay:10.37,2013-06-28 07:25:00,
2013-06-27 23:30:00,69.3,53.8,29.98,West,261,0.0,0.0,58,0.00,CLR,,0.01,WeatherDisplay:10.37,2013-06-28 07:30:00,
2013-06-27 23:40:00,68.7,53.3,29.98,SW,229,0.0,0.0,58,0.00,CLR,,0.01,WeatherDisplay:10.37,2013-06-28 07:40:00,
2013-06-27 23:45:00,68.5,52.6,29.98,SW,236,0.0,0.0,57,0.00,CLR,,0.01,WeatherDisplay:10.37,2013-06-28 07:45:00,
2013-06-27 23:55:00,67.8,52.0,29.99,West,263,0.0,0.0,57,0.00,CLR,,0.01,WeatherDisplay:10.37,2013-06-28 07:55:00,